Find Local Weather

World > North America > United States > Washington

Seattle, Washington Regional Weather

Lat: 47.61N, Lon: 122.33W
Wx Zone: WAZ558
Feedback
Expires:201901211100;;691998
ASUS46 KSEW 211010
RWRWA 

WASHINGTON REGIONAL WEATHER ROUNDUP
NATIONAL WEATHER SERVICE SEATTLE WA
200 AM PST MON JAN 21 2019

NOTE:"FAIR" INDICATES FEW OR NO CLOUDS BELOW 12,000 FEET WITH NO 
SIGNIFICANT WEATHER AND/OR OBSTRUCTIONS TO VISIBILITY.


WAZ507-509-555>559-211100-
SEATTLE, TACOMA, EVERETT, AND VICINITY
  
CITY           SKY/WX    TMP DP  RH WIND       PRES   REMARKS
EVERETT        CLOUDY    40  37  89 W5        30.06R                  
BOEING FIELD   CLOUDY    36  34  92 SE6       30.09R                  
RENTON         CLOUDY    36  34  92 CALM      30.09R                  
SEATAC AIRPORT CLOUDY    39  36  89 CALM      30.07R                  
JBLM-MCCHORD   NOT AVBL                                               
PUYALLUP       CLOUDY    34  34 100 CALM      30.08R FOG              
BREMERTON      MOCLDY    29  29 100 CALM      30.08R                  
JBLM-FT LEWIS  CLOUDY    32 N/A N/A S5        30.08R                  
TACOMA NARROWS CLOUDY    36  35  96 CALM      30.09R                  
$$
 

SKY/WX - Weather  TMP - Temperature  DP - Dew Point  RH - Relative Humidity
WIND - Wind Direction/Speed PRES - Barometric Pressure